Regional Weather Roundup
Issued by NWS

Home | Current Version | Previous Version | Graphics & Text | Print | Product List | Glossary On
Versions: 1 2 3 4 5 6 7 8 9 10 11 12 13 14 15 16 17 18 19 20 21 22 23 24 25 26 27 28 29 30 31 32 33 34 35 36 37 38 39 40 41 42 43 44 45 46 47 48 49 50
000
ASUS44 KMEG 180700
RWRTN
TENNESSEE HOURLY STATE WEATHER ROUNDUP
NATIONAL WEATHER SERVICE MEMPHIS TN
200 AM CDT FRI AUG 18 2017

TNZ002-004-019-021-049-052-054-088>092-180800-
WEST TENNESSEE

CITY           SKY/WX    TMP DP  RH WIND       PRES   REMARKS
MEMPHIS INTL   PTCLDY    75  73  93 W5        29.96F
NWS MEMPHIS      N/A     74 N/A N/A MISG        N/A
JACKSON        CLEAR     73  73 100 SW3       29.95F
DYERSBURG      PTCLDY    74  73  97 SW3       29.95S
$$

TNZ008-025-027-028-033-062-065-066-180800-
NORTH MIDDLE TENNESSEE

CITY           SKY/WX    TMP DP  RH WIND       PRES   REMARKS
NASHVILLE      CLOUDY    76  73  91 SW7       29.94F
CLARKSVILLE    MOCLDY    76  73  91 SW3       29.92F
SMYRNA         CLOUDY    76  73  91 SW9       29.95S
CROSSVILLE     RAIN      71  69  93 W6G16     30.01F
$$

TNZ061-075-076-078-094-096-097-180800-
SOUTH MIDDLE TENNESSEE

CITY           SKY/WX    TMP DP  RH WIND       PRES   REMARKS
TULLAHOMA      CLOUDY    73  72  94 SW6       29.98F
WINCHESTER     CLOUDY    75  73  94 CALM      29.98F
$$

TNZ017-018-042-046-047-180800-
NORTHEAST TENNESSEE

CITY           SKY/WX    TMP DP  RH WIND       PRES   REMARKS
TRI CITIES     PTCLDY    70  69  97 CALM      29.98F
$$

TNZ012-013-036-069-073-074-180800-
CENTRAL EAST TENNESSEE

CITY           SKY/WX    TMP DP  RH WIND       PRES   REMARKS
KNOXVILLE      PTCLDY    75  70  84 SW9       29.96S
OAK RIDGE      CLOUDY    76  71  85 CALM      29.97F
GATLINBURG     PTCLDY    72  68  88 CALM      29.96S
$$

TNZ083-085-099-180800-
SOUTHEAST TENNESSEE

CITY           SKY/WX    TMP DP  RH WIND       PRES   REMARKS
CHATTANOOGA    PTCLDY    78  72  81 S3        29.96F
$$

SKY/WX REPORTED AS FAIR MEANS FEW OR NO CLOUDS BELOW
12 THOUSAND FEET.





USA.gov is the U.S. government's official web portal to all federal, state and local government web resources and services.